Location: Newark
(45.4422°N, 16.2769°E)
Time: 22:43:46
(UTC+00:00)

Courier 1B - Pass Details

Date: 17 December 2019
Orbit: 962 x 1209 km, 28.3° (Epoch: 21 January)

Event Time Altitude Azimuth Distance (km) Brightness Sun altitude
Rises 19:22:49 0° 240° (WSW) 3,782 11.1 -42.7°
Reaches altitude 10° 19:26:17 10° 224° (SW) 2,874 10.2 -43.3°
Enters shadow 19:26:54 12° 219° (SW) 2,744 10.0 -43.4°
Maximum altitude 19:31:02 19° 181° (S) 2,316 - -44.2°
Drops below altitude 10° 19:35:58 10° 138° (SE) 3,001 - -45.0°
Sets 19:39:42 0° 122° (ESE) 4,005 - -45.6°
